Find Starlink 33719

NORAD ID: 63578 Int'l Des: 2025-076 Owner: SPXS Country: US Constellation: starlink operational
LEOCIRCULAR

現在のビュー

3D地球を読み込み中...

Starlink 33719について

説明を読み込み中...

次回通過

Passes for default location (London). Set your location on the main map for personalized predictions.

高度履歴

Loading altitude history...

軌道要素

1 63578U 25076K 26150.24229124 .00021222 00000-0 77822-3 0 9997
2 63578 42.9978 221.0563 0001106 198.8119 161.2692 15.27592025 64302
Epoch: May 30, 2026 • Age: 23 hours

現在のステータス

高度 482.7 km
速度 7.63 km/s
衛星直下点 27.20°N, 48.03°E
打ち上げ日 Apr 14, 2025
運用期間 1.1 years
タイプ internet

技術仕様

分類 Payload
質量 575.00 kg
乾燥質量 530.00 kg
総質量 575.00 kg
長さ 0.30 m
直径 4.10 m
スパン 29.00 m
形状 Box + pan
製造者 SPXS
バスタイプ Starlink V2MO
フェーズステータス In Orbit
所有者/国 SPXS/US

Most Searched